Home > Weather > Salina > Past weeks

Flag for USA Weather for the Past 2 Weeks in Salina, Kansas, USA

Now
58 °F

Sunny.


Feels Like: 57 °F
Forecast: 43 / 82 °F
Wind: 6 mph from Northwest

Location: Salina Municipal Airport

Current Time: May 5, 2016 at 9:31:46 AM

Latest Report: May 5, 2016 at 8:53 AM


Visibility: 10 mi

Pressure: 30.12 "Hg

Humidity: 62%

Dew Point: 45 °F

Location of SalinaLocation

Historic Weather in Salina — Graph

°F

Salina Temperature Yesterday

Maximum temperature yesterday: 74 °F (at 2:53 PM)
Minimum temperature yesterday: 50 °F (at 5:53 AM)
Average temperature yesterday: 63 °F

High & Low Weather Summary for the Past Weeks

 TemperatureHumidityPressure
High87 °F (Apr 26, 3:53 PM)97% (Apr 30, 12:53 AM)30.22 "Hg (Apr 30, 12:53 AM)
Low42 °F (Apr 28, 4:53 AM)24% (May 4, 4:53 PM)29.41 "Hg (Apr 27, 12:53 AM)
Average59 °F67%29.88 "Hg
* Reported Apr 20 7:53 AM — May 5 7:53 AM, Salina, Weather by CustomWeather, © 2016

Note: Actual official high and low records may vary slightly from our data, if they occured in-between our weather recording intervals... More about our weather records

Advertising

Salina Weather History for the Previous 24 Hours

Scroll right to see more
 ConditionsComfort  
Time TempWeatherWind HumidityBarometerVisibility
7:53 AM
Thu, May 5
50 °FSunny.No wind74%30.09 "Hg10 mi
6:53 AM45 °FClear.No wind80%30.08 "Hg10 mi
5:53 AM47 °FClear.3 mph74%30.07 "Hg10 mi
4:53 AM45 °FClear.No wind80%30.06 "Hg10 mi
3:53 AM46 °FClear.No wind77%30.05 "Hg10 mi
2:53 AM47 °FClear.No wind80%30.04 "Hg10 mi
1:53 AM48 °FClear.No wind77%30.05 "Hg10 mi
12:53 AM50 °FClear.No wind74%30.04 "Hg10 mi
11:53 PM
Wed, May 4
51 °FClear.No wind71%30.04 "Hg10 mi
10:53 PM56 °FClear.No wind60%30.04 "Hg10 mi
9:53 PM58 °FClear.3 mph62%30.03 "Hg10 mi
8:53 PM64 °FSunny.No wind43%30.02 "Hg10 mi
7:53 PM67 °FSunny.7 mph39%30.01 "Hg10 mi
6:53 PM72 °FSunny.14 mph28%30.01 "Hg10 mi
5:53 PM73 °FSunny.16 mph24%30.02 "Hg10 mi
4:53 PM74 °FSunny.14 mph24%30.03 "Hg10 mi
3:53 PM74 °FSunny.15 mph26%30.03 "Hg10 mi
2:53 PM74 °FSunny.12 mph26%30.04 "Hg10 mi
1:53 PM72 °FSunny.16 mph27%30.06 "Hg10 mi
12:53 PM72 °FSunny.15 mph28%30.07 "Hg10 mi
11:53 AM70 °FSunny.20 mph32%30.07 "Hg10 mi
11:02 AM69 °FSunny.15 mph39%30.09 "Hg2 mi
10:53 AM68 °FSunny.14 mph39%30.06 "Hg10 mi
10:02 AM65 °FSunny.15 mph45%30.08 "Hg10 mi
9:53 AM65 °FSunny.15 mph45%30.07 "Hg1 mi
Weather by CustomWeather, © 2016

See weather overviewHow to use our weather pages